This is the latest recevied weather packets stored in our database for station/object WV5G-13. If no packets are shown the sender has not sent any weather packets the latest 10 day(s).
| Time | Temp. | Humidity | Pressure | Rain* | Wind** | Luminosity | Snow |
|---|---|---|---|---|---|---|---|
| 1777469442 | 7.22° C | 83% | 1018.1 hPa | 0 mm | - | 161 W/m² | - |
| 1777469137 | 7.22° C | 83% | 1018 hPa | 0 mm | - | 148 W/m² | - |
| 1777468837 | 6.67° C | 84% | 1017.9 hPa | 0 mm | - | 138 W/m² | - |
| 1777468533 | 6.67° C | 84% | 1017.9 hPa | 0 mm | - | 120 W/m² | - |
| 1777468230 | 6.67° C | 85% | 1017.9 hPa | 0 mm | - | 109 W/m² | - |
| 1777467927 | 6.11° C | 85% | 1017.9 hPa | 0 mm | - | 108 W/m² | - |
| 1777467622 | 6.11° C | 85% | 1017.9 hPa | 0 mm | - | 89 W/m² | - |
| 1777467318 | 6.11° C | 86% | 1017.7 hPa | 0 mm | - | 103 W/m² | - |
| 1777467014 | 6.11° C | 86% | 1017.8 hPa | 0 mm | - | 102 W/m² | - |
| 1777466712 | 5.56° C | 87% | 1017.7 hPa | 0 mm | - | 75 W/m² | - |
| 1777466409 | 5.56° C | 87% | 1017.4 hPa | 0 mm | - | 55 W/m² | - |
| 1777466105 | 5.56° C | 87% | 1017.6 hPa | 0 mm | - | 40 W/m² | - |
| 1777465801 | 5.56° C | 87% | 1017.6 hPa | 0 mm | - | 34 W/m² | - |
| 1777465496 | 5° C | 87% | 1017.5 hPa | 0 mm | - | 28 W/m² | - |
| 1777465196 | 5° C | 86% | 1017.5 hPa | 0 mm | - | 20 W/m² | - |
| 1777464892 | 5° C | 86% | 1017.5 hPa | 0 mm | - | 16 W/m² | - |
| 1777464587 | 5° C | 86% | 1017.6 hPa | 0 mm | - | 11 W/m² | - |
| 1777464283 | 5° C | 86% | 1017.4 hPa | 0 mm | - | 7 W/m² | - |
| 1777463979 | 5.56° C | 86% | 1017.4 hPa | 0 mm | - | 4 W/m² | - |
| 1777463674 | 5.56° C | 85% | 1017.5 hPa | 0 mm | - | 2 W/m² | - |
| 1777463368 | 5.56° C | 85% | 1017.2 hPa | 0 mm | - | 1 W/m² | - |
| 1777463066 | 5.56° C | 84% | 1016.9 hPa | 0 mm | - | 0 W/m² | - |
| 1777462761 | 5.56° C | 84% | 1016.8 hPa | 0 mm | - | 0 W/m² | - |
| 1777462456 | 5.56° C | 84% | 1016.7 hPa | 0 mm | - | 0 W/m² | - |
| 1777462154 | 6.11° C | 83% | 1016.6 hPa | 0 mm | - | 0 W/m² | - |
* Rain latest hour (hover to see other rain measurements)
** Current wind speed in m/s (hover to see current wind gust speed)